DELTA 1 DEB, 8314

Orbit data source: Space-Track

DELTA 1 DEB, 8314 is space debris in SSO originally from a launch on Sun, 23 Jul 1972 UTC launched from the Air Force Western Test Range (AFWTR). Debris objects in space refer to the collection of defunct objects orbiting the Earth. Examples of debris include non-operational satellites, rocket bodies, and fragments generated from explosions, collisions, or faulty payload assembly.

Loading next visibility...
Identifier
8314, 1972-058EG
Orbit
SSO
Country
Flag of USUS
Related business
Manufacturer
Unknown
Mission
Spacecraft
Bus & Motor
Unknown
Mass
Unknown
Launch date (UTC)
1972-07-23 (53 years ago)
Launch vehicle
Unknown
Launch site
Air Force Western Test Range (AFWTR)
Object type
Payload
Rocket body
Debris
Shape & HBR
Unknown shape, 0.1 m
Radar Cross Section
Small (<0.1 m²)

Expand to show TLE details & history
Last TLE update: 19 hours ago

TLE from 19 hours ago
0 DELTA 1 DEB
1 08314U 72058EG  25351.60065919  .00002254  00000-0  21544-3 0  9992
2 08314  98.4502 211.7362 0073911  93.6011 267.3662 14.92382723820732
Epoch: 2025-12-17T14:24Z
TLE epoch observation values (Epoch: 2025-12-17T14:24:56.954Z)
Latitude
-0.00005°
Longitude
-90.96929°
Altitude
596.277 km
Speed
7.56 km/s
True Right ascension
14h 06m 56s
True Declination
0° 00' 00"
Sunlit
Object was in daylight at epoch
Visualization orbit readout
Latitude
Unknown
Longitude
Unknown
Altitude
Unknown
Speed
Unknown
Apparent Right ascension
Unknown
Apparent Declination
Unknown
Sunlit
N/A
Visualization observer readout
Local Sidereal Time
08:02:28
Azimuth
Unknown
Elevation
Unknown
Doppler factor
Unknown
Orbital elements
Apogee altitude
639.042 km
Perigee altitude
536.074 km
Semi-major axis
6,965.695 km
Eccentricity
0.00739
Inclination
98.4502°
RAAN
211.7362°
Arg. of periapsis
93.6011°
True anomaly
266.52053°
Mean anomaly
267.3662°
Eccentric anomaly
266.94332°
Mean motion
3.73333 °/min
Orbital period
96.43 mins
BSTAR
0.00021544
Loading maneuver chart data...
Computing Atmospheric mass density...
Loading historical data...
Loading historical data...
Loading historical data...
Loading historical data...
Loading historical data...
Loading historical data...
Loading historical data...

Documentation

Showing up to 5 results
|